Weather History for YPDN - June, 2014

Change the Weather History Date:

Sunday, June 8, 2014

  Actual Average Record
Temperature  
Mean Temperature 80 °F -  
Max Temperature 88 °F 87 °F 93 °F (2003)
Min Temperature 72 °F 68 °F 60 °F (2012)
Cooling Degree Days 15    
Growing Degree Days 30 (Base 50)    
Moisture  
Dew Point 51 °F    
Average Humidity 36    
Maximum Humidity 50    
Minimum Humidity 17    
Precipitation  
Precipitation 0.00 in 0.00 in - ()
Sea Level Pressure  
Sea Level Pressure 29.86 in    
Wind  
Wind Speed 14 mph ()    
Max Wind Speed 24 mph    
Max Gust Speed 31 mph    
Visibility 17.9 miles    
Events      
Averages and records for this station are not official NWS values.
T = Trace of Precipitation, MM = Missing Value Source: Averaged Metar Reports

Daily Weather History Graph

Daily Weather History Graph

Search for Another Location

Airport or City:

Trip Planner

Search our weather history database for the weather conditions in past years. The results will help you decide how hot, cold, wet, or windy it might be!

Date:

Astronomy

Jun. 08, 2014 Rise Set
Actual Time 7:02 AM ACST 6:27 PM ACST
Civil Twilight 6:39 AM ACST 6:50 PM ACST
Nautical Twilight 6:13 AM ACST 7:17 PM ACST
Astronomical Twilight 5:47 AM ACST 7:43 PM ACST
Moon 2:24 PM ACST (6/8) 2:11 AM ACST (6/8)
Length of Visible Light 12h 10m
Length of Day
11h 24m
Waxing Gibbous, 71% of the Moon is Illuminated
Jun 8
Waxing Gibbous
Jun 13
Full
Jun 20
Last Quarter
Jun 27
New
Jul 5
First Quarter

Hourly Weather History & Observations

Time (ACST) Temp. Heat Index Dew Point Humidity Pressure Visibility Wind Dir Wind Speed Gust Speed Precip Events Conditions
12:00 AM 80 °F - 59 °F 38% 29.85 in 19 mi SSE 11.5 mph - -   Partly Cloudy
12:00 AM 80.6 °F 81.1 °F 59.0 °F 48% 29.83 in - SSE 11.5 mph - N/A   Clear
12:30 AM 79 °F - 56 °F 35% 29.85 in - SE 12.7 mph - -  
12:30 AM 78.8 °F - 57.2 °F 47% 29.86 in - SE 12.7 mph - N/A   Clear
1:00 AM 78.8 °F - 55.4 °F 44% 29.86 in - SE 13.8 mph - N/A   Clear
1:30 AM 78.8 °F - 53.6 °F 42% 29.86 in - SE 13.8 mph - N/A   Clear
2:00 AM 77.0 °F - 55.4 °F 47% 29.83 in - SE 13.8 mph - N/A   Clear
3:00 AM 77 °F - 54 °F 35% 29.84 in 19 mi SE 16.1 mph - -   Partly Cloudy
3:00 AM 77.0 °F - 53.6 °F 44% 29.83 in - SE 16.1 mph - N/A   Clear
3:30 AM 76 °F - 54 °F 35% 29.84 in - SE 15.0 mph - -  
3:30 AM 77.0 °F - 53.6 °F 44% 29.83 in - SE 15.0 mph - N/A   Clear
4:00 AM 77.0 °F - 53.6 °F 44% 29.83 in - SE 15.0 mph - N/A   Clear
4:30 AM 75.2 °F - 53.6 °F 47% 29.83 in - SE 15.0 mph - N/A   Clear
5:00 AM 75.2 °F - 53.6 °F 47% 29.83 in - SE 15.0 mph - N/A   Clear
5:30 AM 73.4 °F - 53.6 °F 50% 29.86 in - SE 12.7 mph - N/A   Clear
6:00 AM 73 °F - 54 °F 41% 29.86 in 19 mi SE 11.5 mph - -   Partly Cloudy
6:00 AM 73.4 °F - 53.6 °F 50% 29.86 in - SE 11.5 mph - N/A   Clear
6:30 AM 73 °F - 53 °F 39% 29.87 in - SE 11.5 mph - -  
6:30 AM 73.4 °F - 53.6 °F 50% 29.86 in - SE 11.5 mph - N/A   Clear
7:00 AM 73.4 °F - 51.8 °F 47% 29.86 in - SSE 12.7 mph - N/A   Clear
7:30 AM 73.4 °F - 51.8 °F 47% 29.89 in - SE 17.3 mph - N/A   Clear
8:00 AM 73.4 °F - 51.8 °F 47% 29.89 in - SE 17.3 mph - N/A   Clear
8:30 AM 75.2 °F - 50.0 °F 41% 29.92 in - SE 18.4 mph - N/A   Clear
9:00 AM 75 °F - 49 °F 29% 29.91 in 19 mi SE 19.6 mph - -   Partly Cloudy
9:00 AM 75.2 °F - 50.0 °F 41% 29.92 in - SE 19.6 mph - N/A   Clear
9:30 AM 77 °F - 49 °F 27% 29.92 in - SE 19.6 mph - -  
9:30 AM 77.0 °F - 50.0 °F 39% 29.92 in - SE 19.6 mph - N/A   Clear
9:54 AM 78.8 °F - 50.0 °F 36% 29.92 in - SE 18.4 mph 31.1 mph N/A   Clear
10:00 AM 77.0 °F - 50.0 °F 39% 29.92 in - SE 19.6 mph 31.1 mph N/A   Clear
10:30 AM 78.8 °F - 50.0 °F 36% 29.89 in - ESE 20.7 mph - N/A   Clear
11:00 AM 80.6 °F - 50.0 °F 34% 29.89 in - ESE 21.9 mph - N/A   Clear
11:30 AM 82.4 °F - 50.0 °F 32% 29.86 in - ESE 23.0 mph - N/A   Clear
11:40 AM 84.2 °F - 50.0 °F 30% 29.86 in - SE 20.7 mph - N/A   Clear
11:54 AM 82.4 °F - 48.2 °F 30% 29.86 in - ESE 24.2 mph - N/A   Clear
12:00 PM 83 °F - 49 °F 21% 29.86 in 19 mi ESE 24.2 mph - -   Partly Cloudy
12:00 PM 84.2 °F - 50.0 °F 30% 29.86 in - ESE 24.2 mph - N/A   Clear
12:08 PM 84.2 °F - 50.0 °F 30% 29.86 in - ESE 21.9 mph - N/A   Clear
12:30 PM 84 °F - 49 °F 19% 29.85 in - SE 21.9 mph - -  
12:30 PM 84.2 °F - 48.2 °F 29% 29.86 in - SE 21.9 mph - N/A   Clear
1:00 PM 84.2 °F - 48.2 °F 29% 29.83 in - ESE 18.4 mph - N/A   Clear
1:30 PM 86.0 °F - 50.0 °F 29% 29.83 in - ESE 19.6 mph - N/A   Clear
2:00 PM 86.0 °F - 48.2 °F 27% 29.83 in - East 19.6 mph - N/A   Clear
2:30 PM 86.0 °F - 48.2 °F 27% 29.80 in - ESE 17.3 mph - N/A   Clear
3:00 PM 88 °F - 49 °F 17% 29.81 in 16 mi ESE 16.1 mph - -   Smoke
3:00 PM 87.8 °F - 50.0 °F 27% 29.80 in - ESE 16.1 mph - N/A   Clear
3:30 PM 87 °F - 48 °F 17% 29.80 in - East 18.4 mph - -  
3:30 PM 87.8 °F - 48.2 °F 25% 29.80 in - East 18.4 mph - N/A   Clear
4:00 PM 87.8 °F - 48.2 °F 25% 29.80 in - ESE 12.7 mph - N/A   Clear
4:30 PM 87.8 °F - 50.0 °F 27% 29.80 in - ESE 13.8 mph - N/A   Clear
5:00 PM 87.8 °F - 50.0 °F 27% 29.80 in - SE 13.8 mph - N/A   Clear
5:30 PM 86.0 °F - 48.2 °F 27% 29.83 in - SE 12.7 mph - N/A   Clear
6:00 PM 85 °F - 50 °F 20% 29.83 in 16 mi ESE 10.4 mph - -   Smoke
6:00 PM 86.0 °F - 50.0 °F 29% 29.83 in - ESE 10.4 mph - N/A   Clear
6:30 PM 83 °F - 51 °F 23% 29.83 in - SE 10.4 mph - -  
6:30 PM 84.2 °F - 51.8 °F 33% 29.83 in - SE 10.4 mph - N/A   Clear
7:00 PM 82.4 °F - 50.0 °F 32% 29.83 in - SE 8.1 mph - N/A   Clear
7:30 PM 80.6 °F - 51.8 °F 37% 29.86 in - SE 9.2 mph - N/A   Clear
8:00 PM 78.8 °F - 53.6 °F 42% 29.86 in - SE 10.4 mph - N/A   Clear
8:30 PM 78.8 °F - 51.8 °F 39% 29.86 in - SE 10.4 mph - N/A   Clear
9:00 PM 77 °F - 52 °F 31% 29.89 in 16 mi SE 9.2 mph - -   Smoke
9:00 PM 77.0 °F - 51.8 °F 41% 29.89 in - SE 9.2 mph - N/A   Clear
9:30 PM 78 °F - 51 °F 28% 29.89 in - SE 10.4 mph - -  
9:30 PM 77.0 °F - 50.0 °F 39% 29.89 in - SE 10.4 mph - N/A   Clear
10:00 PM 77.0 °F - 51.8 °F 41% 29.89 in - SE 10.4 mph - N/A   Clear
10:30 PM 75.2 °F - 51.8 °F 44% 29.89 in - SE 9.2 mph - N/A   Clear
11:00 PM 73.4 °F - 51.8 °F 47% 29.89 in - SE 10.4 mph - N/A   Clear
11:30 PM 73.4 °F - 51.8 °F 47% 29.89 in - SE 10.4 mph - N/A   Clear